Location: Poughquag
(41.6090°N, 73.6820°W)
Time: 14:20:55
(UTC-04:00)

Courier 1B - Pass Details

Date: 03 June 2020
Orbit: 962 x 1209 km, 28.3° (Epoch: 05 July)

Event Time Altitude Azimuth Distance (km) Brightness Sun altitude
Rises 22:02:03 0° 216° (SW) 3,799 10.4 -14.7°
Reaches altitude 10° 22:05:44 10° 197° (SSW) 2,896 9.7 -15.1°
Enters shadow 22:08:52 17° 171° (S) 2,479 9.1 -15.5°
